Wind_Speed
7 7 7 8 9 11 12 13 13 12 13 12 9 7 9 8 7 8 6 9 6 1 7 10 7 7 3 9 13 11 11 9 7 8 8 6 5 4 5 9 11 10 8 10 15 16 14 15 16 15 15 14 14 14 13 13 14 14 16 15 15 17 17 18 17 16 16 16 16 16 17 16 16 17 19 19 19 17 16 16 16 16 15 13 14 16
8 8 9 11 13 13 13 13 14 12 10 9 8 8 9 8 8 8 4 8 6 2 7 9 7 7 7 6 12 13 11 9 8 6 7 7 4 4 6 8 13 10 7 9 12 14 14 14 15 15 15 15 15 15 15 15 14 14 16 16 16 18 19 18 17 17 17 16 16 16 17 17 16 18 19 19 19 19 18 18 18 16 16 15 15 16
8 10 13 14 13 13 12 13 13 10 8 8 8 8 8 7 9 6 4 8 6 2 6 9 8 6 5 5 7 12 11 8 6 2 7 8 2 3 6 2 9 8 7 9 9 10 13 14 15 15 15 16 16 15 16 16 15 15 16 18 18 18 19 18 17 18 17 16 17 16 17 18 18 17 19 19 18 19 19 20 19 17 16 16 15 16
8 8 11 13 12 13 13 12 10 7 7 9 7 8 7 7 9 4 5 5 6 5 7 7 7 7 5 7 6 8 12 7 4 3 8 10 6 3 7 3 7 8 6 7 8 8 9 11 14 16 15 16 16 16 17 18 18 18 17 20 21 20 19 19 18 18 17 16 17 16 15 16 19 18 18 18 18 18 19 19 19 18 17 16 14 15
11 9 6 9 8 8 9 9 9 7 7 9 10 10 8 10 13 4 4 7 8 8 9 6 5 6 6 7 3 8 12 8 5 3 3 6 7 6 8 8 9 9 5 4 5 5 4 7 12 15 15 16 17 18 19 20 19 20 19 21 25 23 20 19 19 19 17 17 17 15 14 13 16 18 18 17 17 19 19 18 17 18 17 16 14 16
13 13 7 7 5 4 7 9 10 9 7 9 11 12 10 11 13 7 1 7 6 6 9 6 5 3 4 1 5 7 8 8 6 3 2 3 3 1 3 2 5 8 6 4 2 4 4 5 7 10 14 16 18 19 20 21 20 20 18 20 24 23 20 19 20 20 18 18 18 16 14 13 14 17 17 17 17 19 18 17 17 17 17 16 15 16
10 11 4 5 7 8 9 9 10 9 7 7 3 8 16 9 5 9 7 6 6 5 8 8 5 3 3 2 5 5 6 8 5 3 2 3 3 4 4 3 2 6 6 3 5 7 6 6 8 9 13 17 19 20 20 19 17 19 21 23 24 21 20 20 20 21 19 19 19 17 15 14 15 16 16 17 18 18 18 16 17 17 17 17 15 16
9 9 2 3 9 8 9 10 11 8 8 5 3 9 14 5 1 9 11 8 8 5 6 9 4 4 4 3 6 2 3 5 4 3 3 6 6 3 4 5 2 4 8 8 7 10 8 8 9 10 12 16 19 19 18 16 14 19 26 25 21 19 20 21 21 22 20 20 20 18 16 15 15 15 17 18 17 18 18 17 17 16 17 18 16 16
9 11 7 7 7 6 11 12 9 8 8 3 6 11 11 8 8 8 9 8 7 7 2 4 2 4 4 3 5 3 2 2 3 3 4 7 5 1 3 5 5 3 6 8 10 12 12 12 13 14 14 16 18 16 14 15 15 19 23 21 18 20 22 22 23 22 21 21 21 19 17 16 15 14 16 18 17 18 19 17 17 17 17 18 16 16
6 7 7 8 8 8 13 9 2 5 8 5 10 11 8 8 8 7 8 6 7 8 6 7 6 3 2 2 2 1 2 3 2 3 4 6 2 1 0 4 7 4 3 3 7 10 11 11 12 13 11 9 11 10 11 14 16 17 18 16 19 22 23 23 24 23 22 21 21 20 17 16 17 16 15 16 17 19 19 18 19 18 18 18 16 16
6 6 6 5 7 9 12 9 4 4 11 10 7 6 7 7 5 6 3 5 6 6 7 12 10 6 3 2 3 2 3 4 3 4 5 4 2 1 1 4 8 6 3 3 3 3 3 4 5 5 3 2 4 6 9 13 17 19 17 17 22 24 23 24 25 25 23 21 21 21 19 19 18 16 16 15 17 19 18 18 20 18 19 19 16 17
11 9 6 5 7 9 12 9 3 4 7 9 6 5 6 4 3 4 2 2 5 4 7 12 10 8 6 2 4 4 4 6 5 5 4 2 3 2 2 2 5 5 4 3 3 2 2 3 4 4 3 2 3 6 9 13 18 23 20 19 24 26 24 26 27 27 25 21 21 22 22 21 18 15 17 16 17 20 18 17 19 17 18 20 17 17
11 11 9 9 10 9 10 8 6 7 8 7 6 6 5 3 3 4 2 4 5 5 10 8 3 6 4 1 4 5 4 7 8 6 6 3 4 3 3 2 0 5 5 3 3 2 2 2 3 3 6 5 6 7 9 13 18 23 24 22 24 27 27 28 28 28 26 22 22 23 21 20 19 16 18 18 18 20 18 16 20 19 18 19 18 16
8 11 13 12 9 11 9 8 7 7 7 8 7 5 4 4 5 6 6 6 4 7 9 4 3 6 2 3 4 5 5 8 10 9 9 7 7 5 4 3 3 5 4 3 3 2 2 2 1 1 5 6 7 8 10 13 17 23 29 28 26 28 28 28 27 26 25 23 23 24 21 20 20 17 19 21 20 22 20 18 22 22 17 17 18 17
7 6 9 10 8 12 12 9 9 8 6 7 7 6 5 5 6 6 5 5 5 4 3 6 4 5 1 3 2 5 7 9 9 9 10 7 5 3 1 1 3 4 3 3 4 1 1 1 1 2 4 4 7 10 10 13 16 20 27 29 28 27 26 27 26 24 25 25 25 24 22 21 22 20 20 21 21 22 21 20 22 22 17 15 16 17
8 6 5 9 5 8 12 10 8 10 8 5 7 8 5 4 5 6 6 6 8 6 3 3 1 5 3 4 2 3 5 8 9 8 10 8 4 2 2 4 3 2 3 5 3 2 1 2 3 3 3 4 7 9 10 11 12 16 22 25 26 27 26 26 25 25 26 26 24 23 23 23 24 22 20 20 22 22 22 21 21 22 22 19 16 17
3 7 4 8 3 3 7 7 7 9 6 2 5 4 1 6 7 5 6 6 7 5 4 3 2 5 4 3 2 2 5 7 9 8 8 8 7 6 6 4 2 0 3 7 3 3 3 3 4 4 5 5 8 9 10 10 10 14 21 23 23 23 25 25 24 24 24 25 24 22 22 24 25 23 20 19 20 21 22 22 22 23 24 24 21 17
3 8 2 6 6 9 8 9 8 9 6 3 5 4 5 7 5 2 4 4 4 4 3 3 2 3 2 0 2 4 4 5 7 7 7 7 7 6 4 3 3 2 4 7 3 2 4 3 4 6 7 8 10 10 11 11 12 16 20 22 22 21 22 24 23 22 21 24 25 20 19 23 25 24 20 18 18 18 20 23 24 24 24 25 23 18
4 6 2 5 10 9 9 6 8 9 9 7 8 8 5 5 4 2 4 4 5 5 2 1 1 2 2 0 3 3 2 4 5 5 5 6 5 3 2 2 2 1 3 4 3 2 4 5 6 7 8 11 13 12 12 13 13 16 17 19 20 21 22 23 22 20 19 23 24 20 19 22 24 23 20 19 19 18 20 22 22 24 26 28 26 21
3 3 3 6 8 6 9 6 6 7 9 8 8 7 5 6 3 2 3 3 6 6 2 1 1 0 1 4 6 4 2 3 4 4 3 3 2 1 2 2 1 3 3 4 4 3 3 5 8 10 10 12 14 14 13 13 13 14 14 16 18 18 18 19 19 19 19 19 21 22 21 20 20 21 21 20 20 19 20 20 19 20 24 28 27 23
3 3 3 4 5 4 4 4 5 6 5 7 7 5 5 5 2 2 4 4 5 5 2 1 1 1 1 6 8 8 4 3 3 3 4 2 1 1 3 5 2 1 3 7 7 2 2 6 8 12 12 12 13 14 14 13 13 12 12 13 14 15 16 17 16 17 16 15 18 22 21 19 20 20 20 21 21 20 18 18 21 20 20 26 29 25
4 4 4 4 5 6 4 3 6 9 4 4 5 3 4 5 3 4 5 5 6 6 3 2 1 2 2 4 4 7 7 6 5 5 5 3 2 1 3 5 4 3 4 9 5 3 3 6 8 13 13 13 12 12 13 13 12 12 12 12 12 13 16 17 16 16 16 15 17 20 20 19 20 20 20 21 22 21 19 20 25 25 21 24 30 29
5 4 6 6 5 7 9 6 7 9 7 7 6 4 6 6 4 5 4 4 6 6 6 5 2 1 2 2 3 5 6 6 6 8 6 4 4 4 3 4 5 4 4 7 2 5 1 5 7 13 12 13 12 11 12 12 12 12 12 12 12 13 14 15 15 16 17 17 17 17 18 18 17 17 19 21 20 20 19 19 25 28 23 22 28 30
5 4 6 7 6 7 11 11 8 7 6 7 6 6 7 6 6 6 4 5 6 5 6 5 3 1 2 3 4 5 7 6 5 6 6 5 5 4 4 3 3 3 2 5 2 5 4 5 3 9 9 10 11 11 12 11 12 12 12 13 13 14 14 15 15 16 16 16 15 16 17 16 15 17 20 20 18 18 18 17 21 25 23 22 26 28
1 4 4 5 6 6 8 9 7 6 4 5 6 8 8 8 8 6 3 5 4 3 5 5 2 1 4 4 5 5 6 7 6 4 5 6 4 4 4 3 2 2 3 4 2 9 8 7 4 1 5 8 9 10 11 11 11 12 13 13 13 13 13 13 13 13 12 13 14 16 17 17 17 19 22 21 18 17 17 17 19 22 23 24 28 29
4 3 2 4 6 6 5 5 5 3 3 6 8 10 9 8 9 7 3 4 4 3 5 4 3 1 6 6 7 8 5 5 6 5 5 5 5 4 4 3 4 4 2 2 4 10 6 2 5 6 4 5 8 9 10 10 10 10 10 10 10 9 9 7 6 8 11 13 15 16 16 18 21 21 21 21 21 21 20 19 22 22 21 22 27 28
6 5 5 6 7 7 7 6 7 7 7 9 10 9 9 9 9 7 4 3 3 5 3 1 2 3 6 11 10 11 9 7 8 8 7 5 4 4 4 3 3 3 2 1 5 8 5 5 2 4 7 4 5 8 9 9 9 9 9 8 8 8 8 7 8 12 15 16 17 17 16 18 19 18 18 20 23 24 22 22 24 25 22 18 22 26
6 8 8 11 12 12 13 11 11 12 11 13 12 10 11 10 8 7 5 4 3 4 4 1 3 7 3 11 10 10 13 10 8 9 7 4 4 4 4 4 3 3 4 4 6 6 4 3 4 2 4 4 5 3 5 6 7 9 10 10 10 10 11 12 15 19 17 16 16 15 16 18 17 15 15 18 22 22 22 22 22 25 25 19 19 25
7 9 9 14 15 14 15 14 14 14 13 15 14 13 12 11 10 9 8 9 6 4 5 3 4 7 1 8 5 6 12 10 8 9 7 5 5 5 5 5 4 4 3 4 6 7 5 4 3 2 4 5 5 2 4 5 6 9 9 11 12 11 13 15 17 19 15 14 16 14 13 16 17 14 12 16 20 21 20 20 19 22 26 22 20 25
6 6 9 14 14 14 16 16 16 16 15 15 16 15 14 13 14 13 10 11 8 6 6 4 4 7 3 7 5 6 10 8 6 8 8 6 6 6 5 5 4 4 3 5 6 7 6 6 6 6 2 4 7 7 7 7 6 9 6 9 12 13 13 12 14 16 14 12 15 14 13 13 14 13 13 15 19 20 18 15 15 20 23 22 22 24
6 5 8 11 10 12 15 16 17 16 15 16 16 15 14 14 16 14 11 10 7 6 8 6 6 7 1 5 6 10 12 8 7 9 9 7 6 6 6 5 4 4 4 6 7 6 6 6 7 6 7 8 10 9 6 4 6 10 10 10 11 13 13 11 12 15 14 13 13 13 13 13 14 16 15 14 16 18 16 13 14 19 22 23 26 24
6 6 6 8 8 10 12 15 16 15 15 17 16 15 15 14 13 12 11 9 5 4 7 5 4 3 3 4 5 13 14 10 11 11 9 7 6 6 6 6 5 5 4 6 7 6 7 10 9 4 6 6 8 8 8 7 8 12 13 12 10 12 12 11 13 14 13 13 14 12 11 12 13 13 12 12 13 14 10 8 11 18 21 22 25 22
6 6 5 6 7 8 11 15 15 14 14 12 12 14 13 14 14 13 12 11 7 6 5 4 3 2 4 1 2 10 14 12 11 9 7 7 6 5 5 5 4 4 4 7 8 8 10 11 5 7 7 6 6 6 8 9 9 9 11 12 11 11 11 11 11 12 10 11 12 11 10 10 11 10 9 10 10 8 6 4 8 15 18 16 17 16
8 9 7 6 6 8 12 14 13 12 11 8 8 11 11 12 14 13 12 12 10 7 4 3 4 2 1 3 2 8 13 10 8 8 7 6 5 5 6 6 4 3 5 6 6 9 13 9 7 9 7 7 7 7 7 8 7 7 9 10 10 10 11 11 10 9 9 9 10 9 8 8 8 8 8 10 11 9 7 7 9 14 15 13 13 13
10 10 8 6 7 8 9 10 11 10 9 9 10 11 11 11 12 13 14 13 10 7 5 5 4 2 2 4 3 11 13 8 7 9 8 5 5 6 7 6 4 3 4 5 5 9 14 10 9 8 5 6 7 7 8 9 7 7 8 8 8 8 9 9 8 8 7 8 8 7 6 6 6 7 8 9 11 11 9 10 11 12 10 9 11 13
11 10 7 7 8 7 7 8 10 8 9 12 12 11 12 10 9 12 13 9 7 5 4 4 5 4 5 4 3 13 15 10 8 8 8 7 7 8 8 6 6 4 4 4 3 11 18 13 11 10 8 7 8 7 7 8 8 7 7 8 8 8 8 8 8 7 5 6 8 7 8 8 9 10 10 9 9 9 8 11 14 14 12 11 13 13
13 9 7 8 8 7 8 8 8 10 11 11 11 11 10 7 7 8 8 6 5 5 5 5 5 6 6 4 5 11 12 9 7 6 9 10 10 10 9 7 8 6 5 5 5 16 24 19 12 12 12 8 7 8 8 8 8 7 7 7 7 7 8 9 8 8 8 8 8 7 9 11 11 12 12 11 10 9 9 11 14 16 16 15 16 15
15 11 9 9 8 7 9 8 8 10 9 8 11 12 10 8 10 9 7 7 7 7 8 8 6 5 4 2 5 10 6 4 4 5 8 10 8 9 7 7 10 7 6 8 11 19 24 19 12 11 12 9 8 8 8 9 9 8 7 7 6 6 6 6 7 9 12 13 11 8 8 10 11 12 13 12 12 11 11 11 13 15 15 14 15 16
19 14 10 10 9 8 9 9 9 8 7 6 10 13 13 10 9 11 11 6 4 5 4 4 4 4 5 6 8 8 2 4 4 5 7 8 8 8 4 6 7 8 7 8 11 14 18 18 14 11 10 9 9 9 9 9 8 7 7 6 6 6 5 4 5 6 8 13 15 12 10 11 13 14 14 13 13 12 12 12 13 14 14 13 14 16
16 12 11 12 11 10 10 9 8 6 7 8 8 11 12 6 6 9 9 3 6 8 6 11 12 6 6 11 7 5 3 2 2 5 6 8 10 7 7 3 4 6 9 9 11 16 20 19 15 11 10 9 9 10 10 9 8 6 5 5 5 5 4 4 4 3 4 9 14 14 12 13 14 13 12 12 11 10 10 11 11 11 11 11 12 13
7 8 10 12 12 11 11 10 8 6 5 6 5 7 6 2 3 6 4 1 6 7 8 12 11 7 8 8 5 3 1 3 4 6 7 7 8 8 12 9 9 8 10 13 17 21 20 18 15 12 10 9 10 10 10 9 8 6 5 4 4 3 2 2 2 2 4 7 11 12 10 11 11 8 8 9 9 8 9 9 9 9 9 9 10 10
4 4 6 10 11 10 8 7 7 5 5 12 8 5 5 2 4 2 1 1 4 8 9 10 9 8 6 3 2 3 4 6 6 7 8 6 3 5 11 12 10 11 15 19 21 17 14 15 15 13 11 9 8 8 7 6 6 5 4 3 2 1 2 2 2 3 4 5 8 11 11 10 9 7 7 8 8 8 8 8 8 8 8 9 9 9
2 1 4 6 7 7 7 5 5 5 4 14 12 5 5 5 1 2 4 3 5 7 7 8 8 6 4 2 3 5 7 6 5 6 10 7 2 5 8 9 11 14 17 17 15 13 12 14 14 12 11 9 7 6 4 4 5 4 3 2 1 2 2 2 2 2 3 5 8 12 12 10 8 7 7 7 7 7 7 7 7 7 8 8 9 9
4 4 4 3 2 5 6 4 2 3 2 7 8 3 5 6 4 4 5 4 5 5 4 5 5 5 6 4 2 4 6 5 3 4 8 9 7 8 7 9 11 14 15 13 12 13 14 14 13 12 10 8 7 6 4 3 3 3 2 2 3 3 1 1 2 2 2 5 9 11 11 9 7 7 6 6 5 5 5 6 6 7 8 8 8 9
5 5 4 2 2 5 5 1 1 1 2 2 3 1 4 7 8 8 7 5 4 5 5 4 3 2 3 3 2 1 3 4 3 6 5 10 12 9 7 9 12 13 12 11 12 14 13 14 13 12 10 8 7 6 4 3 2 2 1 2 3 2 1 0 1 1 2 5 9 10 10 8 6 5 5 5 4 4 3 4 5 6 7 8 9 9
5 3 1 2 4 6 5 3 3 3 2 2 4 5 5 6 7 8 7 5 4 4 4 5 5 4 2 1 1 1 2 2 5 6 4 9 10 8 7 9 11 12 12 12 14 14 14 14 14 12 10 9 7 5 4 3 2 1 1 2 1 1 1 0 1 1 2 5 7 8 8 7 6 5 5 5 5 4 2 2 3 4 5 6 7 8
4 9 6 3 5 5 5 6 5 4 3 4 3 5 6 5 7 8 6 5 5 5 4 4 5 7 6 3 3 3 3 5 8 6 7 7 7 8 9 9 9 10 11 13 15 15 14 14 13 11 10 9 7 5 4 3 2 1 1 1 2 2 2 2 1 2 2 4 6 7 6 5 6 6 6 5 5 4 4 4 5 5 5 6 6 6
3 8 6 3 5 6 4 4 5 3 3 3 1 4 5 4 6 7 7 7 7 6 7 6 5 7 7 7 6 5 6 8 7 6 8 5 4 7 9 8 8 9 11 14 16 15 14 13 12 11 11 9 7 6 4 3 2 1 0 1 3 3 0 0 1 2 3 3 5 6 6 5 6 7 7 6 6 6 7 6 6 7 7 7 7 6
5 5 4 3 6 8 3 6 8 6 5 6 4 3 3 3 5 6 7 8 9 8 8 8 7 6 7 8 8 6 8 9 7 7 8 6 5 6 7 8 8 9 12 15 15 14 13 12 11 11 10 9 8 7 5 3 2 1 1 2 3 3 2 2 2 3 3 3 4 5 6 6 6 7 7 7 7 8 8 8 7 6 6 7 7 7
8 6 3 3 5 6 2 3 3 2 2 5 6 6 5 4 4 5 6 8 9 9 9 9 9 8 7 9 10 8 10 10 6 6 8 7 7 7 9 11 11 11 13 15 15 14 13 11 11 11 10 9 9 7 5 4 3 2 2 3 3 3 3 3 3 4 5 5 5 5 5 6 7 6 5 6 6 7 8 8 8 8 7 7 8 9
8 4 0 1 4 4 3 2 2 2 2 4 6 6 6 6 5 6 6 7 8 9 9 9 10 10 8 9 10 11 13 11 9 9 8 8 8 9 12 14 14 13 14 15 14 13 13 11 10 11 10 9 9 7 5 4 3 3 3 3 3 2 3 4 4 5 5 4 3 2 2 3 5 5 6 6 6 6 7 7 8 9 10 10 9 9
Wind_Direction
216 228 225 231 233 241 241 232 240 262 276 290 306 298 283 279 274 268 208 151 136 244 272 277 277 289 267 169 174 175 176 192 199 178 177 215 211 194 199 151 161 196 173 165 186 187 182 172 172 173 174 181 180 186 193 189 190 175 163 168 163 162 164 162 165 168 168 168 168 167 164 167 171 168 169 172 171 170 176 176 173 176 173 170 173 169
208 234 233 236 236 239 252 252 250 258 272 292 301 284 278 279 275 273 208 144 140 230 273 283 268 256 268 207 174 172 178 184 199 194 165 188 192 190 223 159 158 189 155 155 181 182 186 180 179 181 176 186 190 189 192 193 194 178 168 173 168 166 167 168 172 173 174 174 173 173 170 169 170 170 169 171 173 173 176 176 172 173 174 173 171 169
203 234 234 236 248 249 252 259 266 283 300 297 285 272 272 271 264 254 155 139 152 214 271 281 284 271 272 264 200 177 177 173 184 190 101 113 68 302 268 156 146 181 158 156 179 186 193 188 187 190 184 190 194 192 192 193 194 183 176 178 174 171 171 174 177 177 179 178 177 180 177 171 170 173 173 172 172 174 173 172 172 173 175 175 171 171
214 229 227 224 236 245 249 257 271 293 283 267 267 270 265 262 269 242 143 148 157 203 260 281 296 294 284 270 254 159 154 160 149 105 91 113 129 209 260 258 161 184 185 168 179 191 198 194 195 199 197 196 195 197 197 194 192 186 182 179 176 176 176 178 181 180 181 181 179 185 185 173 170 175 176 172 169 169 166 165 172 176 177 176 172 174
258 279 267 236 231 238 264 276 271 269 263 252 240 252 267 263 269 273 140 176 184 210 236 258 274 271 272 262 252 115 133 144 123 101 95 129 144 178 222 217 167 169 207 197 180 202 212 203 206 208 205 202 201 203 200 195 192 188 185 179 177 181 181 180 182 181 181 182 179 184 191 178 169 172 171 168 164 165 165 166 173 177 179 178 175 177
264 274 266 252 268 261 263 268 257 249 258 261 237 228 247 266 282 307 146 188 212 230 199 205 273 276 288 339 108 125 130 123 127 144 159 134 114 270 253 218 129 145 195 245 263 253 252 234 231 221 213 212 210 208 205 201 197 189 183 178 179 183 183 182 181 181 182 181 179 181 186 179 172 172 168 166 165 164 167 171 176 178 181 180 178 180
256 257 223 230 263 249 243 253 251 245 251 269 286 237 230 227 287 300 288 251 265 271 169 180 275 292 275 10 96 149 124 104 113 115 116 99 58 1 345 340 74 125 164 225 275 265 257 238 242 236 222 219 216 212 209 202 189 183 183 179 181 184 184 183 180 182 182 177 179 184 183 179 175 173 173 174 170 168 171 172 177 180 182 183 181 180
239 251 169 207 256 246 243 247 226 227 253 252 359 285 252 216 280 283 286 268 264 279 169 181 242 283 272 5 41 37 108 120 117 88 87 80 65 20 325 305 285 141 164 179 217 249 256 239 237 240 228 223 220 214 205 193 174 183 190 181 180 185 184 185 182 181 182 177 179 185 186 183 179 175 176 176 170 170 175 176 180 182 182 184 183 182
199 236 217 206 243 245 248 249 206 201 253 284 358 325 315 338 331 302 288 271 290 321 267 215 279 293 288 48 54 11 306 214 142 106 96 91 87 218 273 288 272 225 197 176 179 210 231 230 229 233 231 228 225 215 194 181 170 183 193 185 184 188 185 187 186 182 183 181 180 184 186 186 185 179 176 178 176 172 174 178 181 182 181 182 184 185
182 250 243 214 224 234 252 272 106 203 256 327 354 333 312 303 299 282 279 299 332 332 304 309 327 305 316 63 92 352 290 246 155 62 55 89 118 203 189 289 283 268 247 212 186 196 213 222 228 234 232 220 213 205 183 175 172 178 188 190 192 194 189 188 186 184 184 182 180 183 185 185 184 179 172 177 184 180 177 182 183 181 181 182 185 188
268 286 281 255 249 256 274 304 12 267 284 309 315 291 268 264 269 269 318 12 336 311 300 303 306 292 284 140 175 233 229 210 133 65 42 42 358 311 163 263 277 264 218 220 236 231 223 224 239 244 233 152 149 176 181 178 177 176 176 187 194 197 195 188 184 184 183 180 181 183 187 186 182 180 176 175 181 184 184 185 184 183 183 182 185 188
252 244 240 243 245 267 286 294 281 234 273 294 284 271 275 281 289 286 19 15 275 281 276 277 289 289 281 196 170 184 183 165 129 106 92 32 316 295 245 267 297 283 233 214 231 242 245 228 223 201 157 149 160 173 183 178 176 180 182 188 192 196 195 187 183 183 181 180 182 185 187 186 184 186 188 183 180 183 183 181 183 184 183 183 187 190
231 230 229 222 210 229 260 262 250 226 213 236 255 260 268 275 276 273 274 260 251 261 261 255 272 279 285 90 141 136 136 145 133 125 130 183 246 240 240 206 293 278 261 247 232 222 233 233 240 190 154 176 193 183 184 174 172 182 187 188 193 198 192 182 181 182 182 182 183 183 182 183 184 185 188 185 183 184 181 178 182 182 179 183 190 193
223 217 217 225 205 191 222 246 240 225 205 218 234 241 268 289 275 264 264 267 254 256 257 177 153 272 295 93 122 117 122 128 129 139 146 177 202 195 246 232 201 253 273 296 281 272 248 216 275 183 161 181 191 180 182 177 173 180 183 185 196 202 190 178 179 180 182 185 185 184 181 182 184 184 185 185 185 187 185 184 185 183 180 185 192 195
264 237 197 218 218 179 193 239 258 266 258 243 250 253 266 274 256 259 280 294 295 288 260 166 185 302 329 162 142 107 115 107 111 127 127 142 179 154 20 276 231 246 265 270 253 247 261 175 128 149 157 171 174 168 176 180 175 176 179 183 193 197 186 177 179 182 185 189 188 187 187 190 192 191 190 189 189 190 190 190 189 187 186 189 196 200
284 307 200 208 233 177 187 211 242 270 270 264 277 262 251 281 273 279 302 304 297 306 305 224 231 29 89 155 100 80 108 103 106 120 126 134 149 150 188 212 232 274 282 266 231 178 197 154 144 144 139 154 158 160 168 167 164 170 175 180 186 188 182 177 180 183 187 191 189 189 193 197 198 196 192 191 194 195 196 197 196 196 194 189 195 205
272 305 231 180 199 217 225 239 211 225 237 241 283 273 294 309 311 317 309 309 311 315 318 310 39 81 117 125 75 107 123 126 133 138 146 143 148 187 211 211 203 117 278 268 234 175 188 159 146 132 120 138 146 153 160 153 154 165 171 176 179 181 179 178 182 184 186 189 188 191 198 200 198 196 191 190 194 198 202 203 204 206 202 194 193 203
232 286 261 151 231 231 232 284 270 256 283 263 257 333 4 296 288 320 296 308 325 310 310 329 43 123 182 270 134 138 131 150 150 136 142 151 170 190 183 186 201 183 249 266 264 179 177 176 156 134 129 136 138 144 149 148 155 162 169 176 175 175 180 183 186 185 186 190 190 191 197 199 200 198 193 191 192 196 201 204 206 209 206 199 197 203
229 268 233 192 247 215 176 252 271 263 279 269 277 321 335 275 253 261 295 309 295 288 275 253 167 164 257 270 141 144 141 152 144 134 150 167 183 178 138 182 234 246 246 263 277 245 202 189 166 145 137 135 138 143 145 151 162 165 170 177 175 176 182 186 189 189 189 192 193 194 194 195 200 201 198 195 193 196 199 201 205 208 207 203 203 208
235 261 259 229 241 185 161 209 243 226 222 227 263 285 269 265 270 260 288 296 290 299 300 293 360 359 348 67 86 69 51 130 143 160 180 176 168 144 149 147 33 331 306 293 262 239 238 212 169 148 144 139 142 148 148 155 167 169 172 179 182 185 187 189 193 195 195 194 196 199 197 196 199 201 199 198 196 196 198 199 199 204 208 205 204 208
227 227 253 256 249 232 191 202 259 271 211 198 231 248 256 279 297 282 287 285 292 302 290 324 70 187 40 69 85 91 111 192 193 165 167 158 84 63 102 114 114 312 301 275 251 212 260 232 162 141 146 144 144 149 152 157 166 174 180 184 189 189 189 191 194 197 200 200 201 202 200 200 202 201 201 201 200 198 198 199 198 199 205 205 203 204
237 239 243 248 251 267 262 204 248 272 255 222 250 277 297 298 296 285 290 303 309 307 309 350 115 171 52 62 96 110 134 173 174 169 179 174 171 163 117 130 156 191 244 262 266 56 315 245 159 141 149 149 150 155 157 159 164 174 184 188 192 192 192 195 195 198 201 203 205 205 204 205 204 203 204 205 203 200 197 202 204 201 204 209 207 202
220 247 259 253 244 256 260 253 263 281 306 313 292 286 291 288 282 283 293 307 303 315 336 343 356 99 71 87 113 115 131 147 154 167 178 178 176 180 170 158 166 185 234 271 287 92 322 264 155 144 151 155 158 161 164 167 167 173 185 190 191 193 197 201 201 201 203 205 209 210 209 210 208 207 210 210 207 201 199 206 210 206 205 213 210 202
211 233 258 264 263 266 271 278 270 256 286 300 277 271 280 280 285 295 318 315 311 346 348 329 350 63 150 128 115 124 130 136 157 167 167 190 196 178 176 169 164 182 224 277 287 94 41 324 148 144 153 159 161 162 169 175 170 172 183 188 189 194 199 205 210 210 204 204 210 213 211 211 210 211 214 217 212 202 200 209 214 209 208 212 209 206
270 228 237 259 266 263 270 281 260 215 231 280 280 274 267 267 275 277 310 313 310 4 333 309 342 172 177 137 125 136 136 146 167 183 181 190 192 167 161 155 175 215 224 263 345 59 42 338 322 144 165 165 166 167 169 175 174 176 183 186 190 197 199 201 211 214 204 203 214 215 210 210 213 214 215 218 213 201 200 209 212 209 208 207 205 206
306 269 239 258 266 258 252 275 290 276 275 282 280 276 270 273 277 271 295 303 300 359 343 329 353 167 162 148 141 143 156 167 166 202 217 182 165 168 166 172 205 214 222 253 65 75 79 320 338 331 280 183 172 172 167 172 176 174 180 185 189 198 198 188 188 191 189 199 215 218 216 217 218 217 215 216 212 206 205 208 208 207 207 204 200 201
290 283 272 268 271 276 277 290 297 288 273 269 273 277 273 270 272 273 280 287 314 340 327 190 320 324 154 168 174 159 172 190 181 205 219 175 162 178 167 188 221 203 166 121 96 101 140 171 139 300 289 260 202 182 166 171 176 169 170 175 178 189 192 185 196 202 195 197 207 213 217 219 216 212 210 212 213 214 214 214 212 212 214 210 201 204
271 264 264 267 264 264 264 263 263 262 264 273 280 281 272 264 268 277 281 286 299 305 301 127 312 311 166 167 181 163 167 186 193 200 203 174 177 188 177 188 218 213 180 145 124 128 158 177 155 195 291 295 261 216 152 167 176 158 158 167 170 183 191 191 206 213 204 198 202 203 208 214 213 209 211 214 215 215 216 218 220 218 217 213 206 212
257 261 262 265 265 266 268 265 262 261 261 267 271 273 273 273 274 271 269 279 281 276 293 296 274 295 80 136 157 157 162 176 189 189 184 174 179 189 191 190 204 221 192 158 151 148 161 186 156 77 1 328 286 243 158 189 180 139 150 176 178 191 200 190 196 206 202 201 208 210 212 219 220 219 223 225 219 216 217 221 225 220 213 213 216 218
238 260 267 271 277 280 280 279 277 276 273 269 264 261 261 264 268 267 258 262 272 278 279 277 301 323 36 130 140 132 145 158 172 173 168 166 179 191 200 202 208 221 200 178 169 152 164 177 146 125 153 237 232 207 183 194 166 127 156 200 191 198 205 188 187 199 197 199 210 214 213 218 219 216 222 228 221 220 220 213 216 220 216 223 231 223
218 241 264 274 281 275 273 274 275 277 278 277 274 269 267 265 265 268 265 254 252 278 294 315 333 326 21 124 111 111 125 139 147 158 166 171 182 188 199 216 215 214 209 184 165 149 153 137 109 126 173 189 200 200 186 181 145 142 177 210 204 203 203 189 187 193 192 195 202 205 204 210 214 211 214 220 220 227 223 194 202 220 218 225 231 220
235 246 264 272 271 267 271 275 277 280 276 271 270 267 266 267 264 264 272 268 239 241 273 286 284 300 53 60 103 125 134 146 153 162 169 172 185 189 201 224 213 199 191 154 143 143 125 100 94 151 194 185 189 186 172 172 165 160 175 193 203 203 196 188 185 184 188 196 196 197 199 207 214 210 211 217 218 231 234 188 198 215 207 213 221 209
265 263 263 267 270 272 274 277 283 282 270 262 265 264 258 259 261 259 261 264 248 229 246 257 273 344 67 5 199 143 143 151 159 168 166 168 190 191 197 233 228 185 158 139 145 141 105 90 117 195 195 183 196 194 174 175 179 172 173 182 191 194 191 190 187 182 187 189 186 190 194 200 209 206 210 222 216 224 242 194 191 203 200 207 211 194
270 270 269 270 272 273 275 281 284 277 265 263 273 276 275 272 271 266 260 257 245 228 223 230 260 287 161 269 303 127 142 150 152 162 167 173 191 195 202 223 222 174 143 138 149 129 107 115 191 212 194 182 202 210 185 178 184 173 169 178 183 183 187 194 193 187 188 183 180 185 179 176 193 197 203 219 215 208 204 184 194 207 207 206 202 196
260 261 263 260 260 267 273 274 271 265 268 279 281 285 294 299 297 289 277 264 249 232 213 208 232 254 244 285 27 111 132 139 140 157 169 169 179 208 219 202 174 153 124 123 131 113 111 136 192 201 182 175 191 204 192 189 192 171 160 173 178 176 180 189 196 195 187 182 184 184 167 155 175 189 194 207 213 211 194 176 190 208 206 201 210 219
251 254 258 256 255 262 259 252 257 262 270 277 278 278 279 281 285 284 275 259 244 239 231 229 245 253 247 251 134 126 138 148 150 158 173 177 184 211 224 186 145 123 116 136 128 111 121 149 190 185 171 165 170 182 186 188 190 176 167 176 179 177 178 184 197 200 187 190 197 185 166 170 187 193 192 194 201 209 202 185 188 193 190 197 210 217
243 244 249 250 249 255 255 251 259 265 263 263 263 266 270 263 260 276 283 274 267 272 272 266 259 249 246 238 141 125 136 157 156 157 182 188 193 214 219 176 144 142 160 172 121 108 126 152 181 175 169 171 168 168 167 168 176 177 176 180 181 182 183 182 187 186 182 196 216 212 190 188 196 198 195 194 194 199 202 198 196 197 199 204 206 207
239 237 237 245 246 248 256 258 256 256 254 251 256 263 267 259 252 255 262 265 260 256 259 259 240 209 216 216 120 110 117 189 178 174 193 191 199 224 216 148 145 175 191 162 124 110 124 147 164 161 166 176 173 168 165 164 170 176 176 177 179 184 191 191 188 185 176 172 183 207 212 207 210 209 205 205 205 201 201 202 204 205 208 212 213 213
233 232 231 240 243 240 248 253 251 255 258 247 252 260 259 264 276 262 241 236 274 282 281 310 295 226 160 111 103 113 161 243 205 190 194 190 209 224 181 124 157 174 156 141 133 123 130 145 153 152 162 174 173 174 174 170 174 181 180 178 179 186 202 206 197 191 165 149 154 173 202 215 214 211 211 214 213 208 208 210 209 207 211 218 222 222
231 232 229 232 238 239 244 250 251 256 262 249 245 259 257 257 304 281 238 219 337 335 42 43 360 329 126 116 118 152 213 264 198 176 173 190 213 190 120 119 221 166 140 143 137 129 133 143 149 151 161 172 171 171 173 171 175 185 184 182 185 194 209 212 205 191 140 132 142 157 186 213 213 204 209 217 215 212 218 221 215 209 211 217 222 225
250 250 242 235 236 234 234 248 257 253 279 292 269 273 283 215 225 274 249 229 338 348 60 61 30 37 105 125 152 171 124 93 132 158 166 190 206 157 137 172 201 159 136 131 123 126 138 148 151 153 160 169 168 166 168 169 172 179 179 181 191 197 189 182 175 139 125 134 139 145 172 211 215 205 211 217 211 208 217 222 217 212 214 217 219 221
264 279 262 242 243 240 228 249 263 245 334 346 317 284 342 358 208 248 328 289 2 27 48 59 63 78 98 130 142 108 104 110 119 146 161 174 215 172 158 167 158 126 115 117 122 133 145 142 143 149 155 161 164 162 164 167 165 163 168 184 203 178 127 113 106 112 126 141 142 142 160 192 205 203 205 210 209 209 212 217 219 217 217 221 223 223
191 267 280 251 254 256 237 251 267 235 322 346 332 317 16 13 283 33 24 9 27 36 45 58 60 45 32 58 115 116 128 135 131 149 150 144 252 230 166 138 124 121 123 129 138 146 139 132 139 149 151 155 159 153 156 165 157 151 159 170 148 114 110 90 83 103 124 131 131 135 147 167 181 182 181 190 203 210 211 211 216 218 216 218 221 224
186 204 261 290 298 272 248 246 270 223 253 349 343 353 57 54 38 21 17 20 24 15 20 54 57 29 17 12 35 98 123 143 180 196 161 156 201 219 169 133 128 130 138 150 153 147 140 139 143 147 148 153 153 145 149 159 148 145 152 121 91 94 108 100 92 105 128 125 124 130 139 151 165 169 169 179 193 209 219 217 218 225 223 220 221 225
219 218 239 233 230 265 281 315 79 195 233 351 351 360 76 63 35 21 23 26 20 6 1 5 12 17 12 348 346 62 142 161 221 252 205 165 174 185 159 138 136 139 151 158 149 145 147 144 144 148 149 149 145 139 135 125 117 132 122 89 85 94 117 193 148 139 128 120 122 131 140 144 149 152 154 166 181 200 220 223 228 236 235 230 228 229
284 337 354 205 232 255 261 236 189 193 234 296 351 17 53 53 19 13 24 23 10 2 345 325 316 308 286 230 326 286 228 222 251 253 194 151 159 165 151 141 143 151 160 153 143 145 147 145 148 152 147 144 144 142 134 124 117 103 73 73 78 161 155 181 234 197 152 134 132 137 146 150 152 153 157 169 186 202 216 235 247 252 255 250 243 240
337 14 4 304 297 290 250 225 215 212 243 270 327 29 45 30 357 356 4 1 352 342 324 303 291 290 281 252 244 249 237 249 251 213 158 159 172 163 155 151 152 160 161 149 144 147 146 148 154 154 149 151 152 148 145 141 140 117 78 66 258 233 168 152 220 225 200 168 154 153 161 168 168 171 178 186 196 206 218 239 249 252 259 262 257 255
348 2 342 306 297 287 287 335 336 321 317 312 354 71 57 17 344 344 345 342 341 339 336 330 301 282 274 258 244 225 215 237 239 177 155 164 143 134 143 148 156 163 153 144 146 149 150 156 161 158 159 160 156 156 161 159 162 156 109 270 283 292 288 160 245 246 237 212 186 179 181 187 187 187 190 195 198 204 212 225 241 251 258 262 261 261
277 287 293 300 284 266 282 8 354 340 349 345 340 18 33 3 338 338 340 342 343 347 347 337 315 292 278 269 262 232 212 227 225 174 165 154 117 126 144 146 157 166 153 148 154 157 158 164 165 163 165 160 154 160 165 164 185 223 244 256 284 308 309 291 278 269 259 235 214 200 187 189 198 198 195 196 201 209 215 219 229 245 259 266 261 255
272 267 274 303 290 279 301 7 338 323 337 316 307 320 337 335 328 330 340 348 347 347 350 340 325 316 288 264 251 214 198 212 210 165 159 151 142 158 158 147 158 170 162 158 162 160 159 165 164 161 162 155 151 160 169 173 193 219 231 243 256 260 260 269 273 272 266 248 235 224 205 200 204 205 206 208 208 215 223 226 226 231 244 254 254 255
265 259 237 215 245 269 308 313 256 206 206 250 267 283 299 308 309 315 335 351 351 351 352 343 331 330 312 274 235 193 185 193 183 164 160 153 151 161 158 152 162 173 169 165 165 159 158 164 162 158 157 152 151 160 168 172 186 204 212 222 234 236 250 270 276 273 273 267 263 277 257 224 210 202 208 218 223 228 235 235 226 222 229 237 244 252
Height
744 759 764 762 758 749 742 738 736 735 734 736 740 746 749 749 748 738 734 729 728 746 752 742 743 742 739 741 740 739 740 742 745 746 749 748 747 748 750 755 757 754 752 751 752 753 754 755 756 758 760 763 765 767 768 770 772 774 776 779 781 783 786 788 790 792 794 796 798 800 802 804 804 805 806 806 808 809 810 811 812 814 815 817 818 819
745 763 760 748 742 736 732 729 727 729 732 737 743 749 748 748 745 732 728 727 727 746 751 738 742 742 736 736 734 734 739 742 741 743 748 748 749 751 749 753 757 753 751 752 752 752 753 755 756 757 760 762 764 766 768 770 771 773 775 778 780 782 785 787 789 791 793 795 797 799 800 802 804 805 806 806 808 808 810 811 813 814 816 817 818 819
756 760 748 735 729 728 728 726 726 730 735 742 745 749 751 745 739 732 729 729 731 746 750 741 744 742 733 730 730 731 735 738 736 739 746 749 754 756 752 754 758 755 754 754 753 753 753 754 756 757 758 761 763 765 767 769 771 772 774 776 779 781 783 786 788 790 792 794 796 798 800 801 803 804 805 806 807 808 809 811 813 815 816 817 818 819
759 749 732 725 724 728 731 728 729 736 741 745 746 750 751 740 738 743 740 735 734 741 744 743 746 743 736 730 727 730 733 735 736 738 742 745 751 756 756 759 762 756 755 756 754 752 753 753 755 756 757 759 761 763 765 767 769 770 772 775 777 779 782 784 787 789 791 793 795 797 799 800 802 804 805 807 807 807 809 811 812 814 816 817 818 819
749 731 718 720 722 727 735 735 735 744 746 741 740 745 746 736 733 736 738 737 738 740 739 744 756 751 740 738 736 734 735 738 739 739 742 743 744 748 752 757 760 755 753 755 755 753 752 753 754 754 756 758 759 761 762 764 766 768 770 772 775 778 780 783 785 788 790 792 795 796 798 800 801 803 804 806 807 808 809 811 812 814 815 816 817 818
742 722 714 725 728 730 740 742 737 741 747 742 732 730 732 732 728 727 730 739 750 753 740 744 770 767 741 741 747 741 740 742 741 742 744 744 744 746 748 750 755 758 756 753 754 754 753 753 753 754 755 756 757 758 759 762 765 768 770 772 775 778 780 782 784 786 789 791 793 795 797 798 799 801 803 804 805 807 808 810 811 813 814 816 817 818
734 718 716 729 734 735 741 741 733 731 744 747 728 716 719 723 729 732 731 741 755 755 738 736 766 774 752 745 746 740 743 747 746 746 746 746 747 748 749 747 751 760 763 759 755 754 753 753 753 753 754 754 754 756 758 761 763 766 768 770 774 777 779 781 783 785 788 790 792 794 796 798 799 799 801 803 804 806 807 809 811 812 813 815 816 817
728 724 726 731 735 739 741 739 727 723 740 744 720 711 715 716 726 732 733 740 741 738 739 734 746 766 764 754 746 740 748 752 751 752 750 750 752 751 750 747 746 755 764 765 762 755 751 752 751 751 752 752 752 754 757 759 762 764 766 767 771 776 778 780 782 784 786 789 791 793 795 797 799 799 800 802 803 805 806 808 810 811 812 814 815 816
721 729 732 732 740 743 735 725 715 717 735 731 713 713 716 715 725 729 733 738 731 739 757 743 738 766 776 761 750 748 753 757 756 756 754 753 755 752 750 748 745 748 752 756 761 758 751 750 751 750 750 751 752 754 756 758 761 764 765 768 772 774 776 777 780 783 785 787 790 792 794 796 797 799 800 801 802 804 806 807 809 810 811 812 814 816
719 721 719 724 738 737 724 712 708 718 727 718 712 719 720 722 727 729 735 739 740 758 771 750 743 773 784 768 758 758 762 762 758 756 755 753 753 751 751 750 747 747 748 749 752 753 750 749 749 749 749 750 752 753 755 756 760 764 765 770 775 775 775 776 779 782 784 786 788 790 793 794 796 798 799 800 801 803 805 806 808 809 810 811 813 815
715 711 710 718 726 722 715 711 709 715 718 713 718 727 728 728 727 732 739 745 763 781 775 755 746 763 781 773 761 760 759 757 757 759 759 753 751 752 752 750 748 748 750 749 748 747 748 748 749 749 749 750 752 754 755 756 759 764 766 770 775 775 775 775 776 779 782 784 786 788 790 792 794 796 797 799 800 801 803 804 806 807 809 810 812 814
720 720 719 715 714 714 717 719 714 713 715 720 727 733 741 744 741 749 755 760 784 793 772 753 744 756 777 773 757 752 747 746 754 761 760 757 755 754 751 750 752 752 749 748 749 749 748 749 749 749 750 751 753 754 755 756 758 762 765 769 771 772 772 772 773 776 779 782 784 786 788 791 793 794 796 798 799 800 801 803 805 807 808 809 811 813
728 725 718 712 709 712 725 733 726 719 719 727 734 740 756 767 769 778 779 774 783 781 757 746 752 761 768 758 746 746 744 745 751 754 754 755 756 755 750 751 756 754 748 747 749 749 749 749 748 748 751 752 753 754 755 756 757 758 762 765 767 768 769 770 771 774 777 781 783 784 786 789 792 793 795 797 798 798 799 801 803 805 806 808 810 812
736 725 714 717 715 708 721 737 740 732 727 732 735 742 759 773 788 797 785 774 775 768 748 744 758 766 763 755 744 740 740 741 746 749 750 751 753 753 748 747 751 750 747 748 749 749 750 749 748 748 750 752 753 754 754 755 756 757 759 762 764 765 767 768 770 773 776 779 781 783 785 787 790 792 794 795 796 797 798 798 801 803 805 807 809 811
748 741 721 720 717 708 716 725 728 726 725 726 719 726 745 756 775 785 774 772 773 763 753 751 760 768 769 761 742 733 734 736 743 747 747 750 749 749 749 747 748 748 747 748 748 749 750 748 749 749 749 751 752 752 753 754 755 757 758 760 762 764 766 767 769 772 774 777 780 782 784 786 787 790 792 794 795 796 797 798 799 801 803 806 808 810
747 744 714 706 704 702 714 711 707 721 731 722 709 720 737 735 742 753 752 754 756 759 763 759 759 760 757 750 736 733 738 738 744 746 746 752 749 748 751 748 747 749 748 747 747 748 749 748 749 749 749 751 751 752 753 753 755 756 757 759 760 762 763 765 768 770 772 775 778 780 782 784 786 788 791 792 794 796 797 798 799 800 802 803 805 808
748 743 708 701 706 702 708 704 699 718 729 724 722 728 725 712 720 745 754 744 748 772 775 761 764 763 756 754 742 739 745 744 746 748 746 750 750 749 750 747 747 749 749 747 746 748 749 748 749 748 749 751 751 752 753 753 755 755 755 758 760 761 763 765 767 768 771 774 776 778 780 782 785 787 790 791 793 795 797 798 798 799 800 800 802 805
739 745 713 707 721 706 697 702 700 699 707 723 734 723 710 711 719 739 761 762 768 788 781 765 774 776 771 772 756 745 752 751 749 749 749 749 748 748 747 746 746 747 748 747 744 746 747 747 748 748 749 750 751 752 753 754 755 755 756 758 760 761 763 765 767 768 770 772 774 777 778 780 783 786 789 791 793 795 796 797 797 798 799 799 800 804
723 746 728 709 719 707 693 710 720 706 699 713 720 707 715 740 744 743 761 774 780 787 781 771 775 775 771 769 759 753 755 753 752 752 751 750 748 746 746 746 746 745 746 745 745 747 746 745 747 747 748 750 750 752 753 754 755 756 758 759 760 762 763 765 766 767 769 771 773 776 777 779 782 785 788 790 792 793 794 795 796 797 798 799 800 803
714 744 745 714 705 706 704 718 733 725 708 707 711 709 716 731 738 741 749 759 771 782 783 780 782 780 765 753 755 758 754 750 753 753 751 750 747 745 745 746 747 747 747 746 745 747 747 745 744 745 747 748 750 751 752 754 756 757 759 760 762 763 763 765 766 766 768 770 773 775 776 779 781 784 786 787 789 791 792 794 795 796 798 799 801 803
714 736 749 726 707 713 721 721 724 722 716 720 725 725 724 721 722 733 739 739 752 772 782 788 797 785 755 743 750 753 750 747 747 749 750 748 745 744 744 746 748 748 748 747 743 745 749 746 742 744 747 747 749 751 752 753 755 757 759 760 761 763 764 765 765 766 768 770 772 774 776 779 780 782 784 785 787 788 790 792 793 795 797 798 800 802
720 731 742 738 729 730 725 710 706 707 708 715 722 723 727 726 729 748 757 743 738 753 764 778 796 782 750 741 743 741 744 744 741 746 748 745 744 743 743 745 747 747 747 744 740 744 751 749 742 742 745 747 748 750 751 753 754 756 758 760 761 763 763 764 765 766 768 769 771 773 775 777 779 781 782 784 785 786 788 790 791 793 795 796 798 800
710 723 737 740 733 728 716 699 697 700 698 704 711 714 718 721 728 749 763 753 742 746 748 759 783 778 749 739 741 739 741 740 739 742 744 742 741 740 741 742 743 744 743 741 739 743 750 750 744 742 744 746 748 749 751 753 753 755 757 759 761 762 763 764 765 766 767 769 770 772 774 776 777 778 780 782 783 785 787 788 789 792 793 795 797 798
705 724 739 742 731 719 710 699 694 695 702 714 716 711 715 720 721 728 738 740 745 754 756 767 788 780 750 738 742 741 740 740 740 739 739 741 738 738 741 741 740 741 740 739 739 742 751 753 747 743 744 745 747 749 751 753 754 755 757 759 761 762 763 764 765 766 768 769 770 772 773 774 775 776 778 780 782 783 785 786 789 791 792 794 795 796
718 730 740 752 755 746 737 729 719 710 713 723 720 712 713 714 715 721 726 734 749 757 756 769 786 774 747 739 743 742 741 743 742 737 736 738 738 738 740 740 741 740 739 739 740 745 754 757 752 748 746 746 747 749 750 752 754 755 757 759 760 762 763 764 766 767 768 770 772 773 774 774 774 775 776 778 780 781 783 785 787 789 791 794 796 797
724 732 736 755 771 771 766 758 745 731 726 726 721 715 713 711 716 725 732 745 759 755 750 762 771 760 744 742 745 744 743 743 742 739 735 734 737 738 739 740 741 740 740 741 743 748 753 754 754 754 751 748 748 749 750 752 754 756 757 759 760 761 762 763 765 766 766 768 770 771 773 773 773 773 774 776 778 780 781 783 786 787 790 792 794 796
726 731 731 744 754 755 754 746 732 727 731 732 725 718 716 714 714 721 735 750 755 751 755 760 755 750 749 748 747 746 745 744 743 740 735 734 736 737 738 739 739 739 741 741 744 748 748 747 751 755 756 754 751 750 751 752 753 755 757 758 760 760 760 760 761 761 762 765 765 767 770 773 773 773 774 775 777 778 779 781 783 785 787 789 791 793
733 738 732 735 737 733 731 727 720 722 729 729 725 721 718 714 714 722 736 740 738 750 763 753 741 746 749 744 743 743 743 743 741 737 735 735 736 736 737 739 739 740 740 741 744 746 745 745 748 752 755 756 755 754 754 754 754 755 755 755 756 757 756 756 755 755 759 763 764 766 769 771 772 772 772 773 775 776 778 779 781 782 785 787 789 792
734 742 732 730 731 723 718 717 715 717 721 720 720 721 718 716 718 724 730 726 726 745 754 742 737 742 740 736 734 732 734 737 735 732 732 732 734 735 736 738 740 740 739 740 742 743 744 746 748 749 753 757 758 757 755 753 754 755 755 753 753 754 754 754 754 755 759 762 763 766 767 768 769 770 771 772 773 774 776 778 780 781 783 786 788 791
728 739 731 729 732 726 721 719 715 715 718 717 716 714 713 715 716 716 720 717 719 730 732 728 734 735 728 728 726 722 725 728 727 728 730 732 734 735 736 738 739 738 738 739 740 742 743 745 749 752 755 758 756 751 750 751 754 758 755 751 753 753 753 755 756 756 759 760 761 763 764 765 766 768 770 770 771 772 775 777 778 779 781 785 788 790
724 737 730 728 738 736 726 721 717 717 720 720 717 712 710 713 713 712 714 712 717 727 725 724 736 736 723 717 718 720 723 725 728 731 732 732 733 733 736 737 736 736 737 737 739 741 741 745 752 754 752 752 750 748 750 753 755 757 754 749 751 753 753 755 756 756 758 759 760 760 761 763 765 767 769 769 770 771 774 777 778 777 780 785 789 789
724 734 729 732 748 744 728 724 722 717 718 723 722 716 714 715 714 712 710 709 715 727 730 733 741 738 722 714 717 723 724 727 732 731 731 732 730 731 735 735 733 733 733 734 737 739 741 746 752 751 747 748 749 748 751 751 752 753 751 749 750 752 754 756 756 757 759 759 761 761 762 764 764 765 768 769 770 771 773 777 779 779 781 786 789 788
724 732 734 739 752 747 731 726 724 721 731 737 724 711 710 711 710 708 707 705 705 714 728 736 734 725 717 714 718 723 726 729 731 729 730 731 729 731 733 731 730 730 729 732 735 738 743 747 747 745 745 747 749 749 750 750 750 750 751 750 751 751 754 755 756 759 760 760 763 764 766 767 765 766 768 768 770 772 773 777 781 781 782 784 785 785
726 732 734 737 749 750 736 726 729 741 752 740 711 696 699 703 704 707 707 703 700 702 712 720 717 712 713 714 715 721 724 725 726 726 726 727 728 730 730 728 729 728 727 730 732 735 743 745 741 741 744 747 749 750 751 751 750 750 751 751 752 753 754 755 756 759 760 761 763 765 767 768 768 768 768 767 769 771 773 776 778 780 780 780 779 781
730 732 733 734 742 745 735 735 755 766 750 719 697 691 693 695 697 703 702 697 695 698 703 709 711 710 711 710 710 716 720 719 721 723 722 722 724 726 727 726 726 726 727 730 731 735 742 743 740 740 743 746 748 749 750 750 750 751 752 752 753 753 754 755 756 759 761 762 763 765 766 767 768 769 768 767 768 770 772 775 775 776 778 778 778 780
728 731 732 733 737 740 741 750 764 755 725 706 701 697 694 697 702 708 710 701 694 697 702 707 709 706 706 707 707 713 717 716 718 721 720 719 720 721 722 723 723 726 728 728 730 734 739 740 739 740 743 745 747 749 751 750 750 751 752 752 753 753 754 755 756 758 760 762 763 764 765 765 766 767 767 768 769 769 771 774 775 776 776 776 778 780
718 726 732 735 735 738 744 747 743 735 724 718 713 701 695 700 703 709 718 711 694 693 699 703 706 705 704 704 706 709 713 716 723 725 718 716 717 715 714 716 719 723 725 726 729 733 737 738 738 740 744 745 746 749 750 749 750 751 751 752 752 752 753 755 756 758 760 762 763 763 764 764 764 765 766 767 768 768 770 772 774 775 775 775 777 778
710 717 726 736 735 733 741 746 743 745 742 728 713 697 688 690 689 694 713 717 699 691 695 699 703 704 704 705 707 709 715 724 733 730 718 713 714 711 710 713 717 720 721 724 729 733 736 738 738 741 744 745 747 748 748 749 750 750 751 751 751 752 752 753 755 758 760 764 765 763 761 761 761 762 764 765 765 766 767 769 772 773 773 774 775 776
707 709 715 729 735 731 740 749 749 747 737 717 704 693 684 684 683 688 714 725 705 691 693 697 700 701 703 708 710 713 722 733 736 728 716 713 713 709 710 714 716 717 720 723 728 733 736 737 739 742 744 745 746 747 747 748 749 749 750 750 751 751 751 752 753 754 757 762 765 764 761 759 759 761 762 763 764 764 765 767 769 770 771 773 773 774
710 712 715 726 734 732 738 743 738 731 719 702 695 690 682 678 683 704 735 736 710 695 695 698 703 702 702 708 711 715 725 731 729 720 712 710 710 708 710 716 717 716 719 723 727 732 736 737 739 742 743 744 745 746 746 747 748 748 749 749 750 751 750 751 752 753 756 760 763 763 760 756 757 759 760 762 763 763 764 765 767 768 769 770 771 772
721 721 720 724 729 730 736 739 733 722 708 695 690 685 679 681 700 728 744 729 707 699 696 697 705 706 703 706 711 714 717 716 714 711 707 706 708 709 712 717 717 716 719 723 727 732 735 737 739 741 742 743 744 745 745 746 746 747 748 748 749 749 749 751 752 753 755 757 759 762 759 755 755 757 759 760 761 762 763 764 765 767 767 768 769 770
734 735 730 728 728 726 729 737 739 729 712 700 694 684 682 701 726 734 723 708 702 703 699 700 706 706 704 705 707 710 710 707 705 707 706 706 709 710 711 712 714 717 720 723 728 731 733 735 737 740 741 742 743 743 744 745 745 746 747 747 748 748 749 750 751 753 754 756 757 759 759 756 756 757 758 759 760 761 762 763 764 765 766 767 768 769
735 743 744 738 731 727 732 743 753 747 722 706 706 703 703 718 729 720 708 704 703 702 703 706 707 706 706 706 706 707 708 706 706 707 707 708 710 710 709 710 714 719 721 724 727 730 732 735 737 739 741 741 742 743 743 744 744 745 746 747 747 748 749 750 751 752 754 755 756 758 759 758 758 758 759 760 760 761 762 763 764 765 765 766 767 768
726 734 743 743 737 738 742 744 745 738 719 707 715 722 718 717 714 709 709 711 707 704 705 708 708 707 707 707 707 708 708 708 708 707 708 711 712 711 710 712 715 719 721 723 726 729 732 735 737 739 741 741 742 742 743 743 744 744 746 746 747 748 749 750 751 752 753 754 755 757 758 759 759 759 760 760 761 762 762 763 763 764 765 765 766 766
721 717 726 734 734 735 735 730 724 720 712 706 711 714 711 709 707 707 710 711 710 709 707 707 709 707 706 707 709 709 708 708 708 707 707 710 712 711 711 713 716 719 721 722 725 729 732 735 737 739 741 741 741 742 742 743 744 744 745 746 747 748 749 750 751 752 752 754 755 756 758 759 759 759 760 760 761 761 761 762 763 763 764 764 765 765
714 713 719 725 724 722 721 718 715 715 712 708 707 707 706 708 708 708 710 713 712 710 708 709 709 707 705 707 709 709 708 707 707 707 706 708 710 710 712 715 717 719 720 722 726 729 732 735 738 739 740 741 742 742 742 743 744 744 745 746 747 748 749 750 751 751 752 753 754 755 757 758 758 759 759 760 760 760 760 761 762 762 763 763 763 764
717 722 727 729 730 730 727 718 712 714 714 710 710 709 707 708 708 708 710 712 710 709 708 707 707 706 705 705 707 709 708 705 705 707 706 707 710 710 713 717 719 720 721 723 726 729 732 735 737 738 740 741 741 741 742 743 743 744 745 746 746 747 747 748 750 750 751 752 754 755 756 757 757 758 759 759 760 760 760 760 761 761 762 762 762 762
728 728 733 738 740 738 733 723 716 716 714 711 713 714 712 712 712 709 709 709 707 707 706 705 705 706 705 703 704 706 707 705 706 706 706 707 709 710 714 718 720 721 722 724 726 729 731 733 736 737 739 740 741 741 742 742 743 744 745 745 746 746 746 747 748 749 750 751 752 753 754 755 756 757 757 758 759 759 759 760 760 761 761 761 761 761
729 730 734 739 739 734 730 728 726 725 722 717 715 715 713 713 713 712 711 709 708 708 708 706 704 704 704 704 703 704 707 707 705 705 707 708 709 711 714 717 720 723 724 725 727 729 731 732 734 736 738 739 740 741 741 742 743 744 744 745 746 745 746 747 748 748 749 750 751 752 753 754 755 755 756 757 757 758 758 759 759 760 760 760 760 760
728 732 732 738 744 742 736 734 733 735 737 732 724 719 715 712 712 714 713 712 711 710 710 709 706 703 702 702 701 703 706 706 704 705 708 708 709 711 712 716 720 724 725 726 727 728 730 732 733 735 737 738 739 740 741 742 743 743 744 745 745 745 746 747 747 747 748 748 749 750 751 752 753 754 755 756 756 757 757 757 758 759 759 759 759 760
729 730 730 738 746 743 737 734 732 733 738 735 727 722 717 712 712 715 715 713 713 711 709 709 709 705 702 699 696 697 701 702 702 705 707 708 709 710 711 714 719 722 724 726 727 728 730 731 732 734 736 737 738 740 741 741 742 743 744 744 745 745 746 746 746 747 747 747 748 749 749 750 751 752 753 754 755 756 756 756 757 757 758 758 758 759